Location: Bismarck
(46.7731°N, 100.8200°W)
Time: 00:27:19
(UTC-05:00)

Landsat 7 - Visible Passes

Search period start: 26 March 2017 00:00
Search period end: 05 April 2017 00:00
Orbit: 702 x 703 km, 98.2° (Epoch: 24 March)

Date Brightness Start Highest point End Pass type
(mag) Time Alt. Az. Time Alt. Az. Time Alt. Az.
26 Mar 5.1 22:27:53 27° NE 22:27:53 27° NE 22:31:05 10° N visible
27 Mar 5.9 00:06:46 24° NW 00:06:46 24° NW 00:09:03 10° NNW visible
27 Mar 6.0 21:32:10 10° ENE 21:32:42 10° NE 21:33:31 10° NE visible
27 Mar 4.7 23:11:03 42° N 23:11:03 42° N 23:14:18 10° N visible
28 Mar 6.6 00:49:56 12° WNW 00:49:56 12° WNW 00:50:34 10° NW visible
28 Mar 5.3 22:15:20 23° NE 22:15:20 23° NE 22:18:38 10° NNE visible
28 Mar 5.5 23:54:13 31° NW 23:54:13 31° NW 23:56:59 10° NNW visible
29 Mar 4.6 22:58:30 43° NNE 22:58:30 43° NNE 23:02:01 10° N visible
30 Mar 6.4 00:37:22 16° WNW 00:37:22 16° WNW 00:38:54 10° NW visible
30 Mar 5.5 22:02:47 19° ENE 22:02:50 19° ENE 22:06:05 10° NNE visible
30 Mar 5.0 23:41:40 40° NW 23:41:40 40° NW 23:44:51 10° NNW visible
31 Mar 4.6 22:45:57 38° NE 22:45:57 38° NE 22:49:42 10° N visible
01 Apr 6.0 00:24:50 21° WNW 00:24:50 21° WNW 00:27:03 10° NW visible
01 Apr 5.7 21:50:14 15° ENE 21:50:46 15° ENE 21:53:24 10° NNE visible
01 Apr 4.6 23:29:07 50° NNW 23:29:07 50° NNW 23:32:40 10° NNW visible
02 Apr 4.8 22:33:24 32° ENE 22:33:24 32° ENE 22:37:19 10° N visible
03 Apr 5.7 00:12:17 27° WNW 00:12:17 27° WNW 00:15:06 10° NNW visible
03 Apr 5.9 21:37:41 11° ENE 21:38:44 12° NE 21:40:26 10° NE visible
03 Apr 4.2 23:16:34 58° N 23:16:34 58° N 23:20:28 10° N visible
04 Apr 6.5 00:55:26 12° WNW 00:55:26 12° WNW 00:56:17 10° WNW visible
04 Apr 5.0 22:20:51 26° ENE 22:20:59 26° ENE 22:24:53 10° N visible
